Location: Chena
(64.8152°N, 147.9227°W)
Time: 00:26:38
(UTC+00:00)

Vanguard 2 - Pass Details

Date: 01 March 2021
Orbit: 552 x 2938 km, 32.9° (Epoch: 10 April)

Event Time Altitude Azimuth Distance (km) Brightness Sun altitude
Rises 15:42:18 0° 224° (SW) 6,432 11.8 -8.9°
Reaches altitude 10° 15:48:43 10° 207° (SSW) 5,655 11.7 -8.3°
Maximum altitude 15:58:01 17° 175° (S) 5,163 11.8 -7.3°
Drops below altitude 10° 16:07:12 10° 142° (SE) 5,599 12.6 -6.3°
Sets 16:13:29 0° 126° (SE) 6,343 13.4 -5.6°
